Location: Almena Post Office
(39.8928°N, 99.7066°W)
Time: 10:14:32
(UTC+00:00)

Meteor 1-31 Rocket - Pass Details

Date: 27 February 2020
Orbit: 522 x 546 km, 97.6° (Epoch: 28 March)

Event Time Altitude Azimuth Distance (km) Brightness Sun altitude
Rises 12:04:10 0° 358° (N) 2,672 6.3 -14.5°
Reaches altitude 10° 12:06:33 10° 345° (NNW) 1,782 5.3 -14.0°
Maximum altitude 12:09:40 24° 290° (WNW) 1,125 3.8 -13.4°
Enters shadow 12:10:40 22° 266° (W) 1,208 3.9 -13.2°
